Terminal Aerodrome Forecast
Issued by NWS

Current Version | Previous Version | Graphics & Text | Print | Product List | Glossary On
Versions: 1 2 3 4 5 6 7 8 9 10 11 12 13 14 15 16 17 18 19 20 21 22 23 24 25 26
000
FTUS41 KRLX 162300
TAFCKB
TAF
KCKB 162333Z 1700/1724 17008G15KT 6SM -RA BKN040 OVC060
     FM170200 18009KT P6SM SCT040 BKN080
     FM171000 21005KT P6SM BKN025
     FM171200 22004KT 5SM -SHRA BR BKN015
     FM171600 24004KT 6SM HZ BKN020
     FM171900 28005KT P6SM SCT025
     FM172200 30005KT P6SM SCT030=

USA.gov is the U.S. government's official web portal to all federal, state and local government web resources and services.